Fairfield, IA

8:41 PM CDT on July 25, 2017 (GMT -0500)
Fairfield Municipal

Weather History for KFFL - October, 2013

Change the Weather History Date:

Tuesday, October 15, 2013

  Actual Average Record
Temperature  
Mean Temperature 56 °F -  
Max Temperature 62 °F 64 °F 89 °F (1999)
Min Temperature 50 °F 44 °F 28 °F (1972)
Degree Days  
Heating Degree Days 9    
Growing Degree Days 6 (Base 50)    
Moisture  
Dew Point 47 °F    
Average Humidity 68    
Maximum Humidity 94    
Minimum Humidity 45    
Precipitation  
Precipitation 0.02 in - - ()
Sea Level Pressure  
Sea Level Pressure 29.88 in    
Wind  
Wind Speed 16 mph (SW)    
Max Wind Speed 22 mph    
Max Gust Speed 29 mph    
Visibility 9 miles    
Events Rain    
Averages and records for this station are not official NWS values.
T = Trace of Precipitation, MM = Missing Value Source: NWS Daily Summary

Daily Weather History Graph

Daily Weather History Graph

Search for Another Location

Airport or City:

Trip Planner

Search our weather history database for the weather conditions in past years. The results will help you decide how hot, cold, wet, or windy it might be!

Date:

Astronomy

Oct. 15, 2013 Rise Set
Actual Time 7:19 AM CDT 6:26 PM CDT
Civil Twilight 6:51 AM CDT 6:54 PM CDT
Nautical Twilight 6:20 AM CDT 7:26 PM CDT
Astronomical Twilight 5:48 AM CDT 7:58 PM CDT
Moon 4:33 PM CDT (10/15) 3:41 AM CDT (10/15)
Length of Visible Light 12h 02m
Length of Day
11h 07m
Waxing Gibbous, 88% of the Moon is Illuminated
Oct 15
Waxing Gibbous
Oct 18
Full
Oct 26
Last Quarter
Nov 3
New
Nov 9
First Quarter

Hourly Weather History & Observations

Time (CDT) Temp. Dew Point Humidity Pressure Visibility Wind Dir Wind Speed Gust Speed Precip Events Conditions
12:15 AM 60.8 °F 42.8 °F 52% 29.95 in 10.0 mi SSE 18.4 mph 24.2 mph N/A   Overcast
12:35 AM 60.8 °F 44.6 °F 55% 29.94 in 10.0 mi SSE 17.3 mph 25.3 mph N/A   Overcast
12:55 AM 60.8 °F 46.4 °F 59% 29.92 in 10.0 mi SSE 17.3 mph 27.6 mph N/A   Overcast
1:15 AM 60.8 °F 48.2 °F 63% 29.91 in 10.0 mi SSE 20.7 mph 28.8 mph N/A   Overcast
1:35 AM 60.8 °F 50.0 °F 68% 29.91 in 10.0 mi SSE 17.3 mph 26.5 mph N/A   Overcast
1:55 AM 60.8 °F 50.0 °F 68% 29.90 in 10.0 mi SSE 20.7 mph - N/A   Overcast
2:15 AM 60.8 °F 50.0 °F 68% 29.90 in 10.0 mi SSE 16.1 mph 24.2 mph N/A   Overcast
2:35 AM 60.8 °F 51.8 °F 72% 29.89 in 10.0 mi SSE 18.4 mph 25.3 mph N/A   Overcast
2:55 AM 60.8 °F 51.8 °F 72% 29.89 in 10.0 mi SSE 16.1 mph 25.3 mph N/A   Overcast
3:15 AM 59.0 °F 53.6 °F 82% 29.90 in 9.0 mi South 13.8 mph 21.9 mph N/A   Overcast
3:35 AM 60.8 °F 53.6 °F 77% 29.91 in 9.0 mi SSW 10.4 mph - N/A   Light Drizzle
3:55 AM 59.0 °F 53.6 °F 82% 29.90 in 5.0 mi South 11.5 mph 18.4 mph N/A   Light Drizzle
4:15 AM 59.0 °F 55.4 °F 88% 29.89 in 5.0 mi SSE 13.8 mph - N/A   Light Drizzle
4:35 AM 57.2 °F 55.4 °F 94% 29.87 in 4.0 mi SSE 16.1 mph 23.0 mph N/A   Overcast
4:55 AM 57.2 °F 55.4 °F 94% 29.85 in 6.0 mi SSE 19.6 mph 26.5 mph 0.02 in   Overcast
5:15 AM 59.0 °F 55.4 °F 88% 29.83 in - SSE 20.7 mph - N/A   Overcast
5:35 AM 59.0 °F 57.2 °F 94% 29.83 in 8.0 mi SSE 18.4 mph 27.6 mph N/A   Overcast
5:55 AM 59.0 °F 57.2 °F 94% 29.83 in 9.0 mi South 18.4 mph 27.6 mph N/A   Overcast
6:15 AM 59.0 °F 57.2 °F 94% 29.84 in 10.0 mi South 13.8 mph 21.9 mph N/A   Overcast
6:35 AM 59.0 °F 57.2 °F 94% 29.84 in 9.0 mi South 16.1 mph - N/A Rain Light Rain
6:55 AM 59.0 °F 57.2 °F 94% 29.86 in 9.0 mi SSW 11.5 mph 20.7 mph N/A   Overcast
7:15 AM 59.0 °F 57.2 °F 94% 29.82 in 7.0 mi South 15.0 mph - N/A   Overcast
7:35 AM 59.0 °F 57.2 °F 94% 29.84 in 7.0 mi South 13.8 mph - N/A   Overcast
7:55 AM 59.0 °F 57.2 °F 94% 29.85 in 5.0 mi SSW 10.4 mph 17.3 mph N/A   Overcast
8:15 AM 59.0 °F 57.2 °F 94% 29.85 in 5.0 mi SSW 10.4 mph - N/A   Overcast
8:35 AM 60.8 °F 57.2 °F 88% 29.85 in 5.0 mi South 8.1 mph - N/A   Overcast
8:55 AM 60.8 °F 57.2 °F 88% 29.85 in 9.0 mi SSW 10.4 mph - N/A   Overcast
9:15 AM 62.6 °F 59.0 °F 88% 29.85 in 10.0 mi SW 9.2 mph - N/A   Overcast
9:35 AM 57.2 °F 53.6 °F 88% 29.86 in 10.0 mi West 11.5 mph 21.9 mph N/A   Overcast
9:55 AM 57.2 °F 53.6 °F 88% 29.86 in 10.0 mi West 13.8 mph - N/A   Overcast
10:15 AM 59.0 °F 53.6 °F 82% 29.86 in 10.0 mi West 13.8 mph - N/A   Overcast
10:35 AM 57.2 °F 50.0 °F 77% 29.86 in 10.0 mi WSW 17.3 mph - N/A   Overcast
10:55 AM 59.0 °F 50.0 °F 72% 29.86 in 10.0 mi West 16.1 mph - N/A   Overcast
11:15 AM 59.0 °F 48.2 °F 67% 29.87 in 10.0 mi SW 13.8 mph 21.9 mph N/A   Overcast
11:35 AM 59.0 °F 48.2 °F 67% 29.87 in 10.0 mi WSW 15.0 mph 20.7 mph N/A   Mostly Cloudy
11:55 AM 59.0 °F 46.4 °F 63% 29.87 in 10.0 mi West 13.8 mph 21.9 mph N/A   Mostly Cloudy
12:15 PM 59.0 °F 44.6 °F 59% 29.87 in 10.0 mi West 12.7 mph 21.9 mph N/A   Scattered Clouds
12:35 PM 60.8 °F 44.6 °F 55% 29.87 in 10.0 mi West 13.8 mph 20.7 mph N/A   Scattered Clouds
12:55 PM 60.8 °F 44.6 °F 55% 29.86 in 10.0 mi WSW 17.3 mph - N/A   Scattered Clouds
1:15 PM 60.8 °F 44.6 °F 55% 29.86 in 10.0 mi West 15.0 mph 21.9 mph N/A   Partly Cloudy
1:35 PM 60.8 °F 42.8 °F 52% 29.85 in 10.0 mi WSW 19.6 mph - N/A   Clear
1:55 PM 60.8 °F 42.8 °F 52% 29.85 in 10.0 mi West 18.4 mph - N/A   Partly Cloudy
2:15 PM 60.8 °F 41.0 °F 48% 29.86 in 10.0 mi WSW 18.4 mph 24.2 mph N/A   Scattered Clouds
2:35 PM 60.8 °F 41.0 °F 48% 29.86 in 10.0 mi WSW 17.3 mph - N/A   Partly Cloudy
2:55 PM 60.8 °F 41.0 °F 48% 29.85 in 10.0 mi West 15.0 mph 24.2 mph N/A   Partly Cloudy
3:15 PM 62.6 °F 41.0 °F 45% 29.86 in 10.0 mi West 18.4 mph 25.3 mph N/A   Clear
3:35 PM 60.8 °F 39.2 °F 45% 29.86 in 10.0 mi WSW 21.9 mph - N/A   Clear
3:55 PM 60.8 °F 39.2 °F 45% 29.86 in 10.0 mi WSW 16.1 mph 26.5 mph N/A   Partly Cloudy
4:15 PM 59.0 °F 39.2 °F 48% 29.86 in 10.0 mi West 17.3 mph 24.2 mph N/A   Clear
4:35 PM 59.0 °F 39.2 °F 48% 29.87 in 10.0 mi West 13.8 mph 23.0 mph N/A   Clear
4:55 PM 60.8 °F 39.2 °F 45% 29.87 in 10.0 mi West 19.6 mph 25.3 mph N/A   Partly Cloudy
5:15 PM 59.0 °F 39.2 °F 48% 29.87 in 10.0 mi West 17.3 mph - N/A   Clear
5:35 PM 59.0 °F 39.2 °F 48% 29.88 in 10.0 mi West 13.8 mph 25.3 mph N/A   Clear
5:55 PM 57.2 °F 39.2 °F 51% 29.88 in 10.0 mi West 13.8 mph 20.7 mph N/A   Clear
6:15 PM 55.4 °F 39.2 °F 54% 29.89 in 10.0 mi West 19.6 mph - N/A   Clear
6:35 PM 53.6 °F 39.2 °F 58% 29.90 in 10.0 mi West 18.4 mph 25.3 mph N/A   Clear
6:55 PM 51.8 °F 39.2 °F 62% 29.92 in 10.0 mi West 15.0 mph 21.9 mph N/A   Clear
7:15 PM 50.0 °F 37.4 °F 62% 29.92 in 10.0 mi West 11.5 mph 17.3 mph N/A   Clear
7:55 PM 51.8 °F 39.2 °F 62% 29.93 in 10.0 mi West 17.3 mph 25.3 mph N/A   Overcast
8:15 PM 51.8 °F 39.2 °F 62% 29.93 in 10.0 mi West 16.1 mph 23.0 mph N/A   Overcast
8:35 PM 51.8 °F 39.2 °F 62% 29.93 in 10.0 mi West 13.8 mph 23.0 mph N/A   Overcast
8:55 PM 51.8 °F 39.2 °F 62% 29.94 in 10.0 mi West 11.5 mph 20.7 mph N/A   Overcast
9:15 PM 51.8 °F 39.2 °F 62% 29.94 in 10.0 mi West 17.3 mph 27.6 mph N/A   Overcast
9:35 PM 51.8 °F 39.2 °F 62% 29.94 in 10.0 mi West 16.1 mph 21.9 mph N/A   Overcast
9:55 PM 51.8 °F 39.2 °F 62% 29.94 in 10.0 mi West 13.8 mph - N/A   Overcast
10:15 PM 50.0 °F 39.2 °F 66% 29.95 in 10.0 mi West 15.0 mph 24.2 mph N/A   Overcast
10:35 PM 50.0 °F 39.2 °F 66% 29.94 in 10.0 mi West 15.0 mph - N/A   Overcast
10:55 PM 50.0 °F 39.2 °F 66% 29.95 in 10.0 mi West 12.7 mph - N/A   Overcast
11:15 PM 50.0 °F 39.2 °F 66% 29.95 in 10.0 mi West 15.0 mph - N/A   Overcast
11:35 PM 50.0 °F 39.2 °F 66% 29.94 in - West 15.0 mph - N/A   Overcast
11:55 PM 50.0 °F 39.2 °F 66% 29.94 in 10.0 mi West 16.1 mph - N/A   Overcast